Time,TemperatureF,DewpointF,PressureIn,WindDirection,WindDirectionDegrees,WindSpeedMPH,WindSpeedGustMPH,Humidity,HourlyPrecipIn,Conditions,Clouds,dailyrainin,SoftwareType,DateUTC
2013-08-13 00:00:00,71.6,68.0,29.23,West,270,0.0,0.0,90,29.97,,,29.97,WeatherTracker,2013-08-13 04:00:00,
2013-08-13 00:05:00,71.6,69.8,29.23,West,270,0.0,0.0,91,29.89,,,29.89,WeatherTracker,2013-08-13 04:05:00,
2013-08-13 00:10:00,71.6,69.8,29.23,West,270,0.0,0.0,91,29.89,,,29.89,WeatherTracker,2013-08-13 04:10:00,
2013-08-13 00:15:00,71.4,69.8,29.21,West,270,0.0,0.0,92,29.89,,,29.89,WeatherTracker,2013-08-13 04:15:00,
2013-08-13 00:20:00,71.4,69.8,29.21,West,270,0.0,0.0,91,29.89,,,29.89,WeatherTracker,2013-08-13 04:20:00,
2013-08-13 00:25:00,71.4,69.8,29.21,West,270,0.0,0.0,92,29.89,,,29.89,WeatherTracker,2013-08-13 04:25:00,
2013-08-13 00:30:00,71.4,69.8,29.21,West,270,0.0,0.0,92,29.89,,,29.89,WeatherTracker,2013-08-13 04:30:00,
2013-08-13 00:35:00,71.2,68.0,29.21,West,270,0.0,0.0,92,29.89,,,29.89,WeatherTracker,2013-08-13 04:35:00,
2013-08-13 00:40:00,71.2,68.0,29.21,West,270,0.0,0.0,92,29.89,,,29.89,WeatherTracker,2013-08-13 04:40:00,
2013-08-13 00:45:00,71.1,69.8,29.21,West,270,0.0,0.0,93,29.89,,,29.89,WeatherTracker,2013-08-13 04:45:00,
2013-08-13 00:50:00,71.1,69.8,29.21,West,270,0.0,0.0,93,29.89,,,29.89,WeatherTracker,2013-08-13 04:50:00,
2013-08-13 00:55:00,71.1,69.8,29.21,West,270,0.0,0.0,93,29.89,,,29.89,WeatherTracker,2013-08-13 04:55:00,
2013-08-13 01:00:00,71.1,69.8,29.21,West,270,0.0,0.0,94,29.89,,,29.89,WeatherTracker,2013-08-13 05:00:00,
2013-08-13 01:10:00,71.1,69.8,29.21,West,270,0.0,0.0,94,29.89,,,29.89,WeatherTracker,2013-08-13 05:10:00,
2013-08-13 01:15:00,71.1,69.8,29.21,West,270,0.0,0.0,95,29.89,,,29.89,WeatherTracker,2013-08-13 05:15:00,
2013-08-13 01:20:00,71.1,69.8,29.21,West,270,0.0,0.0,95,29.89,,,29.89,WeatherTracker,2013-08-13 05:20:00,
2013-08-13 01:25:00,71.1,69.8,29.21,West,270,0.0,0.0,95,29.89,,,29.89,WeatherTracker,2013-08-13 05:25:00,
2013-08-13 01:30:00,71.1,69.8,29.21,West,270,0.0,0.0,96,29.89,,,29.89,WeatherTracker,2013-08-13 05:30:00,
2013-08-13 01:35:00,71.1,69.8,29.21,West,270,0.0,0.0,96,29.89,,,29.89,WeatherTracker,2013-08-13 05:35:00,
2013-08-13 01:40:00,71.1,69.8,29.21,West,270,0.0,0.0,96,29.89,,,29.89,WeatherTracker,2013-08-13 05:40:00,
2013-08-13 01:45:00,71.1,69.8,29.21,West,270,0.0,0.0,96,29.89,,,29.89,WeatherTracker,2013-08-13 05:45:00,
2013-08-13 01:50:00,71.1,69.8,29.21,West,270,0.0,0.0,96,29.89,,,29.89,WeatherTracker,2013-08-13 05:50:00,
2013-08-13 01:55:00,70.9,69.8,29.21,West,270,0.0,0.0,96,29.89,,,29.89,WeatherTracker,2013-08-13 05:55:00,
2013-08-13 02:00:00,71.1,69.8,29.21,West,270,0.0,0.0,96,29.89,,,29.89,WeatherTracker,2013-08-13 06:00:00,
2013-08-13 02:05:00,70.9,69.8,29.21,West,270,0.0,0.0,96,29.89,,,29.89,WeatherTracker,2013-08-13 06:05:00,
2013-08-13 02:10:00,70.9,69.8,29.21,West,270,0.0,0.0,96,29.89,,,29.89,WeatherTracker,2013-08-13 06:10:00,
2013-08-13 02:20:00,70.7,69.8,29.21,West,270,0.0,0.0,96,29.89,,,29.89,WeatherTracker,2013-08-13 06:20:00,
2013-08-13 02:25:00,70.7,69.8,29.21,West,270,0.0,0.0,96,29.89,,,29.89,WeatherTracker,2013-08-13 06:25:00,
2013-08-13 02:30:00,70.7,69.8,29.21,West,270,0.0,0.0,96,29.89,,,29.89,WeatherTracker,2013-08-13 06:30:00,
2013-08-13 02:35:00,70.7,69.8,29.21,West,270,0.0,0.0,97,29.89,,,29.89,WeatherTracker,2013-08-13 06:35:00,
2013-08-13 02:40:00,70.9,69.8,29.21,West,270,0.0,0.0,97,29.89,,,29.89,WeatherTracker,2013-08-13 06:40:00,
2013-08-13 02:45:00,70.9,69.8,29.21,West,270,0.0,0.0,97,29.89,,,29.89,WeatherTracker,2013-08-13 06:45:00,
2013-08-13 02:50:00,70.9,69.8,29.21,West,270,0.0,0.0,97,29.89,,,29.89,WeatherTracker,2013-08-13 06:50:00,
2013-08-13 02:55:00,70.9,69.8,29.21,West,270,0.0,0.0,97,29.89,,,29.89,WeatherTracker,2013-08-13 06:55:00,
2013-08-13 03:05:00,71.1,69.8,29.21,West,270,1.0,0.0,97,29.89,,,29.89,WeatherTracker,2013-08-13 07:05:00,
2013-08-13 03:10:00,71.1,69.8,29.21,West,270,0.0,0.0,97,29.89,,,29.89,WeatherTracker,2013-08-13 07:10:00,
2013-08-13 03:15:00,71.1,69.8,29.21,West,270,0.0,0.0,97,29.89,,,29.89,WeatherTracker,2013-08-13 07:15:00,
2013-08-13 03:20:00,71.1,69.8,29.21,West,270,0.0,0.0,97,29.89,,,29.89,WeatherTracker,2013-08-13 07:20:00,
2013-08-13 03:25:00,70.9,69.8,29.21,West,270,0.0,0.0,97,29.89,,,29.89,WeatherTracker,2013-08-13 07:25:00,
2013-08-13 03:30:00,70.9,69.8,29.18,West,270,0.0,0.0,97,29.89,,,29.89,WeatherTracker,2013-08-13 07:30:00,
2013-08-13 03:35:00,70.9,69.8,29.18,West,270,0.0,0.0,97,29.89,,,29.89,WeatherTracker,2013-08-13 07:35:00,
2013-08-13 03:40:00,70.9,69.8,29.18,West,270,0.0,0.0,97,29.89,,,29.89,WeatherTracker,2013-08-13 07:40:00,
2013-08-13 03:45:00,70.7,69.8,29.21,West,270,0.0,0.0,97,29.89,,,29.89,WeatherTracker,2013-08-13 07:45:00,
2013-08-13 03:50:00,70.7,69.8,29.21,West,270,0.0,0.0,97,29.89,,,29.89,WeatherTracker,2013-08-13 07:50:00,
2013-08-13 03:55:00,70.7,69.8,29.21,West,270,0.0,0.0,97,29.89,,,29.89,WeatherTracker,2013-08-13 07:55:00,
2013-08-13 04:00:00,70.7,69.8,29.18,West,270,0.0,0.0,97,29.89,,,29.89,WeatherTracker,2013-08-13 08:00:00,
2013-08-13 04:05:00,70.9,69.8,29.18,West,270,0.0,0.0,97,29.89,,,29.89,WeatherTracker,2013-08-13 08:05:00,
2013-08-13 04:10:00,70.9,69.8,29.18,West,270,0.0,0.0,97,29.89,,,29.89,WeatherTracker,2013-08-13 08:10:00,
2013-08-13 04:15:00,70.9,71.6,29.18,West,270,0.0,0.0,98,29.89,,,29.89,WeatherTracker,2013-08-13 08:15:00,
2013-08-13 04:20:00,71.1,71.6,29.18,West,270,0.0,0.0,98,29.89,,,29.89,WeatherTracker,2013-08-13 08:20:00,
2013-08-13 04:25:00,71.1,71.6,29.18,West,270,0.0,0.0,98,29.89,,,29.89,WeatherTracker,2013-08-13 08:25:00,
2013-08-13 04:35:00,71.2,71.6,29.15,West,270,0.0,0.0,98,29.89,,,29.89,WeatherTracker,2013-08-13 08:35:00,
2013-08-13 04:40:00,71.2,71.6,29.15,West,270,0.0,0.0,98,29.89,,,29.89,WeatherTracker,2013-08-13 08:40:00,
2013-08-13 04:45:00,71.2,71.6,29.18,West,270,0.0,0.0,98,29.89,,,29.89,WeatherTracker,2013-08-13 08:45:00,
2013-08-13 04:50:00,71.4,71.6,29.18,West,270,0.0,0.0,98,29.89,,,29.89,WeatherTracker,2013-08-13 08:50:00,
2013-08-13 04:55:00,71.4,71.6,29.18,West,270,1.0,2.0,98,29.89,,,29.89,WeatherTracker,2013-08-13 08:55:00,
2013-08-13 05:00:00,71.4,71.6,29.18,West,270,1.0,1.0,98,29.89,,,29.89,WeatherTracker,2013-08-13 09:00:00,
2013-08-13 05:05:00,71.4,71.6,29.18,West,270,0.0,0.0,98,29.89,,,29.89,WeatherTracker,2013-08-13 09:05:00,
2013-08-13 05:10:00,71.4,71.6,29.18,West,270,0.0,0.0,98,29.89,,,29.89,WeatherTracker,2013-08-13 09:10:00,
2013-08-13 05:15:00,71.4,71.6,29.15,West,270,1.0,0.0,98,29.89,,,29.89,WeatherTracker,2013-08-13 09:15:00,
2013-08-13 05:20:00,71.4,71.6,29.15,West,270,0.0,0.0,98,29.89,,,29.89,WeatherTracker,2013-08-13 09:20:00,
2013-08-13 05:25:00,71.4,71.6,29.15,West,270,0.0,0.0,98,29.89,,,29.89,WeatherTracker,2013-08-13 09:25:00,
2013-08-13 05:30:00,71.4,71.6,29.18,SSW,202,1.0,0.0,98,29.89,,,29.89,WeatherTracker,2013-08-13 09:30:00,
2013-08-13 05:35:00,71.4,71.6,29.18,WSW,247,2.0,0.0,98,29.89,,,29.89,WeatherTracker,2013-08-13 09:35:00,
2013-08-13 05:40:00,71.4,71.6,29.18,West,270,0.0,1.0,98,29.89,,,29.89,WeatherTracker,2013-08-13 09:40:00,
2013-08-13 05:45:00,71.4,71.6,29.18,West,270,0.0,0.0,98,29.89,,,29.89,WeatherTracker,2013-08-13 09:45:00,
2013-08-13 05:50:00,71.6,71.6,29.18,West,270,0.0,0.0,97,29.89,,,29.89,WeatherTracker,2013-08-13 09:50:00,
2013-08-13 05:55:00,71.4,71.6,29.18,West,270,0.0,0.0,98,29.89,,,29.89,WeatherTracker,2013-08-13 09:55:00,
2013-08-13 06:00:00,71.4,71.6,29.15,West,270,2.0,3.0,98,29.89,,,29.89,WeatherTracker,2013-08-13 10:00:00,
2013-08-13 06:05:00,71.4,71.6,29.15,West,270,2.0,3.0,98,29.89,,,29.89,WeatherTracker,2013-08-13 10:05:00,
2013-08-13 06:10:00,71.4,71.6,29.15,WSW,247,0.0,0.0,98,29.89,,,29.89,WeatherTracker,2013-08-13 10:10:00,
2013-08-13 06:15:00,71.4,71.6,29.15,West,270,1.0,0.0,98,29.89,,,29.89,WeatherTracker,2013-08-13 10:15:00,
2013-08-13 06:20:00,71.4,71.6,29.15,West,270,2.0,2.0,98,29.89,,,29.89,WeatherTracker,2013-08-13 10:20:00,
2013-08-13 06:25:00,71.4,71.6,29.15,WSW,247,1.0,2.0,98,29.89,,,29.89,WeatherTracker,2013-08-13 10:25:00,
2013-08-13 06:30:00,71.4,71.6,29.15,WSW,247,0.0,0.0,98,29.89,,,29.89,WeatherTracker,2013-08-13 10:30:00,
2013-08-13 06:35:00,71.4,71.6,29.15,WSW,247,0.0,1.0,98,29.89,,,29.89,WeatherTracker,2013-08-13 10:35:00,
2013-08-13 06:40:00,71.2,71.6,29.15,West,270,1.0,2.0,98,29.89,,,29.89,WeatherTracker,2013-08-13 10:40:00,
2013-08-13 06:45:00,71.2,71.6,29.15,WSW,247,0.0,0.0,98,29.89,,,29.89,WeatherTracker,2013-08-13 10:45:00,
2013-08-13 06:50:00,71.2,71.6,29.15,SSW,202,1.0,1.0,98,29.89,,,29.89,WeatherTracker,2013-08-13 10:50:00,
2013-08-13 06:55:00,71.2,71.6,29.15,WSW,247,0.0,0.0,98,29.89,,,29.89,WeatherTracker,2013-08-13 10:55:00,
2013-08-13 07:00:00,71.4,71.6,29.15,WSW,247,0.0,0.0,98,29.89,,,29.89,WeatherTracker,2013-08-13 11:00:00,
2013-08-13 07:05:00,71.6,71.6,29.15,WSW,247,1.0,0.0,97,29.89,,,29.89,WeatherTracker,2013-08-13 11:05:00,
2013-08-13 07:10:00,71.6,71.6,29.15,WSW,247,2.0,3.0,97,29.89,,,29.89,WeatherTracker,2013-08-13 11:10:00,
2013-08-13 07:15:00,71.6,71.6,29.15,West,270,2.0,0.0,97,29.89,,,29.89,WeatherTracker,2013-08-13 11:15:00,
2013-08-13 07:20:00,71.8,71.6,29.15,WSW,247,1.0,0.0,97,29.89,,,29.89,WeatherTracker,2013-08-13 11:20:00,
2013-08-13 07:25:00,72.1,71.6,29.15,WSW,247,1.0,2.0,97,29.89,,,29.89,WeatherTracker,2013-08-13 11:25:00,
2013-08-13 07:30:00,72.1,71.6,29.15,SSW,202,0.0,0.0,97,29.89,,,29.89,WeatherTracker,2013-08-13 11:30:00,
2013-08-13 07:35:00,72.1,71.6,29.15,SSW,202,2.0,3.0,97,29.89,,,29.89,WeatherTracker,2013-08-13 11:35:00,
2013-08-13 07:40:00,72.3,71.6,29.15,West,270,1.0,0.0,97,29.89,,,29.89,WeatherTracker,2013-08-13 11:40:00,
2013-08-13 07:45:00,72.7,71.6,29.15,West,270,0.0,1.0,97,29.89,,,29.89,WeatherTracker,2013-08-13 11:45:00,
2013-08-13 07:50:00,72.9,71.6,29.15,West,270,0.0,0.0,97,29.89,,,29.89,WeatherTracker,2013-08-13 11:50:00,
2013-08-13 08:00:00,73.2,73.4,29.15,West,270,1.0,1.0,97,29.89,,,29.89,WeatherTracker,2013-08-13 12:00:00,
2013-08-13 08:05:00,73.2,73.4,29.15,West,270,2.0,2.0,97,29.89,,,29.89,WeatherTracker,2013-08-13 12:05:00,
2013-08-13 08:10:00,73.2,73.4,29.15,West,270,0.0,0.0,97,29.89,,,29.89,WeatherTracker,2013-08-13 12:10:00,
2013-08-13 08:15:00,73.2,73.4,29.15,South,180,2.0,3.0,97,29.89,,,29.89,WeatherTracker,2013-08-13 12:15:00,
2013-08-13 08:20:00,73.4,73.4,29.15,West,270,0.0,1.0,97,29.89,,,29.89,WeatherTracker,2013-08-13 12:20:00,
2013-08-13 08:25:00,73.4,73.4,29.15,West,270,2.0,3.0,97,29.89,,,29.89,WeatherTracker,2013-08-13 12:25:00,
2013-08-13 08:30:00,73.6,73.4,29.15,West,270,2.0,3.0,96,29.89,,,29.89,WeatherTracker,2013-08-13 12:30:00,
2013-08-13 08:35:00,73.6,73.4,29.15,WNW,292,2.0,2.0,96,29.89,,,29.89,WeatherTracker,2013-08-13 12:35:00,
2013-08-13 08:40:00,73.8,73.4,29.15,WSW,247,2.0,3.0,95,29.89,,,29.89,WeatherTracker,2013-08-13 12:40:00,
2013-08-13 08:45:00,74.3,73.4,29.18,West,270,2.0,0.0,95,29.89,,,29.89,WeatherTracker,2013-08-13 12:45:00,
2013-08-13 08:50:00,74.8,73.4,29.18,West,270,1.0,0.0,94,29.89,,,29.89,WeatherTracker,2013-08-13 12:50:00,
2013-08-13 08:55:00,75.2,73.4,29.18,West,270,0.0,1.0,93,29.89,,,29.89,WeatherTracker,2013-08-13 12:55:00,
2013-08-13 09:00:00,75.0,73.4,29.15,SSW,202,2.0,2.0,91,29.89,,,29.89,WeatherTracker,2013-08-13 13:00:00,
2013-08-13 09:05:00,74.5,71.6,29.15,West,270,4.0,4.0,87,29.89,,,29.89,WeatherTracker,2013-08-13 13:05:00,
2013-08-13 09:10:00,75.2,71.6,29.15,West,270,3.0,3.0,85,29.89,,,29.89,WeatherTracker,2013-08-13 13:10:00,
2013-08-13 09:15:00,75.9,69.8,29.18,WSW,247,1.0,1.0,83,29.89,,,29.89,WeatherTracker,2013-08-13 13:15:00,
2013-08-13 09:20:00,76.6,69.8,29.18,West,270,3.0,4.0,79,29.89,,,29.89,WeatherTracker,2013-08-13 13:20:00,
2013-08-13 09:25:00,77.0,69.8,29.18,West,270,2.0,3.0,76,29.89,,,29.89,WeatherTracker,2013-08-13 13:25:00,
2013-08-13 09:30:00,76.6,66.2,29.18,NW,315,4.0,4.0,70,29.89,,,29.89,WeatherTracker,2013-08-13 13:30:00,
2013-08-13 09:35:00,75.9,64.4,29.18,West,270,2.0,2.0,69,29.89,,,29.89,WeatherTracker,2013-08-13 13:35:00,
2013-08-13 09:40:00,76.1,66.2,29.18,West,270,0.0,0.0,71,29.89,,,29.89,WeatherTracker,2013-08-13 13:40:00,
2013-08-13 09:45:00,76.1,66.2,29.18,West,270,3.0,3.0,71,29.89,,,29.89,WeatherTracker,2013-08-13 13:45:00,
2013-08-13 09:50:00,76.3,66.2,29.18,WNW,292,1.0,3.0,70,29.89,,,29.89,WeatherTracker,2013-08-13 13:50:00,
2013-08-13 09:55:00,76.3,66.2,29.18,WNW,292,1.0,2.0,69,29.89,,,29.89,WeatherTracker,2013-08-13 13:55:00,
2013-08-13 10:00:00,76.6,66.2,29.18,WNW,292,1.0,2.0,70,29.89,,,29.89,WeatherTracker,2013-08-13 14:00:00,
2013-08-13 10:05:00,76.5,66.2,29.18,WNW,292,3.0,4.0,68,29.89,,,29.89,WeatherTracker,2013-08-13 14:05:00,
2013-08-13 10:10:00,76.3,64.4,29.18,NW,315,2.0,2.0,66,29.89,,,29.89,WeatherTracker,2013-08-13 14:10:00,
2013-08-13 10:15:00,76.5,64.4,29.18,West,270,2.0,0.0,66,29.89,,,29.89,WeatherTracker,2013-08-13 14:15:00,
2013-08-13 10:20:00,77.0,66.2,29.18,NW,315,2.0,0.0,67,29.89,,,29.89,WeatherTracker,2013-08-13 14:20:00,
2013-08-13 10:25:00,77.4,66.2,29.18,NW,315,2.0,2.0,66,29.89,,,29.89,WeatherTracker,2013-08-13 14:25:00,
2013-08-13 10:30:00,77.9,66.2,29.18,West,270,1.0,0.0,64,29.89,,,29.89,WeatherTracker,2013-08-13 14:30:00,
2013-08-13 10:35:00,78.6,66.2,29.18,West,270,0.0,0.0,64,29.89,,,29.89,WeatherTracker,2013-08-13 14:35:00,
2013-08-13 10:40:00,78.8,64.4,29.18,West,270,0.0,2.0,62,29.89,,,29.89,WeatherTracker,2013-08-13 14:40:00,
2013-08-13 10:45:00,79.2,64.4,29.18,WSW,247,2.0,2.0,60,29.89,,,29.89,WeatherTracker,2013-08-13 14:45:00,
2013-08-13 10:50:00,79.5,62.6,29.18,West,270,1.0,0.0,56,29.89,,,29.89,WeatherTracker,2013-08-13 14:50:00,
2013-08-13 10:55:00,79.3,62.6,29.18,SW,225,1.0,2.0,55,29.89,,,29.89,WeatherTracker,2013-08-13 14:55:00,
2013-08-13 11:00:00,79.0,60.8,29.15,SW,225,2.0,0.0,53,29.89,,,29.89,WeatherTracker,2013-08-13 15:00:00,
2013-08-13 11:05:00,79.5,60.8,29.15,West,270,1.0,0.0,53,29.89,,,29.89,WeatherTracker,2013-08-13 15:05:00,
2013-08-13 11:10:00,79.9,60.8,29.15,West,270,2.0,2.0,52,29.89,,,29.89,WeatherTracker,2013-08-13 15:10:00,
2013-08-13 11:15:00,80.6,60.8,29.15,WNW,292,2.0,3.0,51,29.89,,,29.89,WeatherTracker,2013-08-13 15:15:00,
2013-08-13 11:20:00,80.8,59.0,29.15,West,270,4.0,4.0,47,29.89,,,29.89,WeatherTracker,2013-08-13 15:20:00,
2013-08-13 11:25:00,81.1,60.8,29.15,South,180,1.0,2.0,48,29.89,,,29.89,WeatherTracker,2013-08-13 15:25:00,
2013-08-13 11:30:00,81.5,59.0,29.15,WNW,292,2.0,2.0,46,29.89,,,29.89,WeatherTracker,2013-08-13 15:30:00,
2013-08-13 11:35:00,82.2,59.0,29.15,WSW,247,1.0,3.0,45,29.89,,,29.89,WeatherTracker,2013-08-13 15:35:00,
2013-08-13 11:40:00,82.4,57.2,29.15,SW,225,2.0,2.0,43,29.89,,,29.89,WeatherTracker,2013-08-13 15:40:00,
2013-08-13 11:45:00,82.8,57.2,29.15,West,270,4.0,4.0,41,29.89,,,29.89,WeatherTracker,2013-08-13 15:45:00,
2013-08-13 11:50:00,83.7,57.2,29.15,WSW,247,1.0,2.0,41,29.89,,,29.89,WeatherTracker,2013-08-13 15:50:00,
2013-08-13 11:55:00,83.8,57.2,29.15,WNW,292,1.0,3.0,41,29.89,,,29.89,WeatherTracker,2013-08-13 15:55:00,
2013-08-13 12:00:00,85.6,59.0,29.15,WSW,247,1.0,1.0,40,29.89,,,29.89,WeatherTracker,2013-08-13 16:00:00,
2013-08-13 12:05:00,84.9,55.4,29.15,SW,225,1.0,2.0,37,29.89,,,29.89,WeatherTracker,2013-08-13 16:05:00,
2013-08-13 12:10:00,84.9,55.4,29.15,West,270,2.0,0.0,36,29.89,,,29.89,WeatherTracker,2013-08-13 16:10:00,
2013-08-13 12:15:00,84.7,55.4,29.15,West,270,2.0,3.0,36,29.89,,,29.89,WeatherTracker,2013-08-13 16:15:00,
2013-08-13 12:20:00,85.1,55.4,29.15,SSW,202,3.0,3.0,35,29.89,,,29.89,WeatherTracker,2013-08-13 16:20:00,
2013-08-13 12:25:00,85.3,53.6,29.15,SSW,202,3.0,4.0,34,29.89,,,29.89,WeatherTracker,2013-08-13 16:25:00,
2013-08-13 12:30:00,86.4,55.4,29.15,WNW,292,3.0,3.0,34,29.89,,,29.89,WeatherTracker,2013-08-13 16:30:00,
2013-08-13 12:35:00,87.1,53.6,29.15,SSW,202,3.0,4.0,32,29.89,,,29.89,WeatherTracker,2013-08-13 16:35:00,
2013-08-13 12:40:00,87.8,53.6,29.15,SSW,202,4.0,4.0,30,29.89,,,29.89,WeatherTracker,2013-08-13 16:40:00,
2013-08-13 12:45:00,87.4,53.6,29.15,SW,225,1.0,3.0,31,29.89,,,29.89,WeatherTracker,2013-08-13 16:45:00,
2013-08-13 12:55:00,86.5,53.6,29.15,West,270,3.0,3.0,31,29.89,,,29.89,WeatherTracker,2013-08-13 16:55:00,
2013-08-13 13:00:00,87.4,53.6,29.15,West,270,3.0,4.0,31,29.89,,,29.89,WeatherTracker,2013-08-13 17:00:00,
2013-08-13 13:05:00,87.4,53.6,29.15,West,270,2.0,2.0,31,29.89,,,29.89,WeatherTracker,2013-08-13 17:05:00,
2013-08-13 13:15:00,85.3,51.8,29.15,NW,315,4.0,4.0,32,29.89,,,29.89,WeatherTracker,2013-08-13 17:15:00,
2013-08-13 13:20:00,85.3,53.6,29.15,SSE,157,2.0,6.0,33,29.89,,,29.89,WeatherTracker,2013-08-13 17:20:00,
2013-08-13 13:25:00,84.7,53.6,29.15,SW,225,2.0,2.0,33,29.89,,,29.89,WeatherTracker,2013-08-13 17:25:00,
2013-08-13 13:30:00,84.7,53.6,29.15,WSW,247,1.0,1.0,35,29.89,,,29.89,WeatherTracker,2013-08-13 17:30:00,
2013-08-13 13:35:00,84.7,55.4,29.15,West,270,1.0,2.0,36,29.89,,,29.89,WeatherTracker,2013-08-13 17:35:00,
2013-08-13 13:45:00,86.9,55.4,29.15,South,180,4.0,4.0,34,29.89,,,29.89,WeatherTracker,2013-08-13 17:45:00,
2013-08-13 13:50:00,87.4,55.4,29.15,West,270,2.0,2.0,34,29.89,,,29.89,WeatherTracker,2013-08-13 17:50:00,
2013-08-13 14:00:00,90.1,55.4,29.15,NNE,22,2.0,2.0,30,29.89,,,29.89,WeatherTracker,2013-08-13 18:00:00,
2013-08-13 14:05:00,90.7,53.6,29.15,West,270,3.0,3.0,28,29.89,,,29.89,WeatherTracker,2013-08-13 18:05:00,
2013-08-13 14:10:00,90.9,53.6,29.15,West,270,4.0,4.0,28,29.89,,,29.89,WeatherTracker,2013-08-13 18:10:00,
2013-08-13 14:15:00,90.5,53.6,29.12,WNW,292,4.0,4.0,27,29.89,,,29.89,WeatherTracker,2013-08-13 18:15:00,
2013-08-13 14:20:00,90.7,53.6,29.12,WNW,292,3.0,3.0,28,29.89,,,29.89,WeatherTracker,2013-08-13 18:20:00,
2013-08-13 14:25:00,92.1,53.6,29.12,WNW,292,3.0,3.0,27,29.89,,,29.89,WeatherTracker,2013-08-13 18:25:00,
2013-08-13 14:30:00,91.2,53.6,29.12,WSW,247,3.0,3.0,27,29.89,,,29.89,WeatherTracker,2013-08-13 18:30:00,
2013-08-13 14:35:00,92.1,53.6,29.12,ENE,67,2.0,5.0,27,29.89,,,29.89,WeatherTracker,2013-08-13 18:35:00,
2013-08-13 14:40:00,93.2,51.8,29.12,West,270,3.0,3.0,25,29.89,,,29.89,WeatherTracker,2013-08-13 18:40:00,
2013-08-13 14:45:00,93.0,50.0,29.12,WNW,292,4.0,4.0,23,29.89,,,29.89,WeatherTracker,2013-08-13 18:45:00,
2013-08-13 14:50:00,93.0,48.2,29.12,West,270,4.0,6.0,22,29.89,,,29.89,WeatherTracker,2013-08-13 18:50:00,
2013-08-13 15:00:00,93.7,48.2,29.09,West,270,3.0,3.0,21,29.89,,,29.89,WeatherTracker,2013-08-13 19:00:00,
2013-08-13 15:05:00,94.1,48.2,29.09,West,270,4.0,4.0,20,29.89,,,29.89,WeatherTracker,2013-08-13 19:05:00,
2013-08-13 15:10:00,94.3,48.2,29.09,West,270,3.0,4.0,20,29.89,,,29.89,WeatherTracker,2013-08-13 19:10:00,
2013-08-13 15:15:00,93.7,46.4,29.09,SSW,202,4.0,5.0,20,29.89,,,29.89,WeatherTracker,2013-08-13 19:15:00,
2013-08-13 15:20:00,92.7,48.2,29.09,West,270,2.0,3.0,21,29.89,,,29.89,WeatherTracker,2013-08-13 19:20:00,
2013-08-13 15:25:00,93.7,46.4,29.09,WNW,292,4.0,4.0,20,29.89,,,29.89,WeatherTracker,2013-08-13 19:25:00,
2013-08-13 15:35:00,94.6,46.4,29.09,WNW,292,4.0,6.0,19,29.89,,,29.89,WeatherTracker,2013-08-13 19:35:00,
2013-08-13 15:40:00,91.6,44.6,29.09,West,270,4.0,4.0,20,29.89,,,29.89,WeatherTracker,2013-08-13 19:40:00,
2013-08-13 15:45:00,93.0,48.2,29.09,WNW,292,3.0,3.0,21,29.89,,,29.89,WeatherTracker,2013-08-13 19:45:00,
2013-08-13 15:50:00,91.2,48.2,29.09,West,270,4.0,4.0,22,29.89,,,29.89,WeatherTracker,2013-08-13 19:50:00,
2013-08-13 15:55:00,89.4,48.2,29.09,West,270,2.0,4.0,23,29.89,,,29.89,WeatherTracker,2013-08-13 19:55:00,
2013-08-13 16:00:00,88.5,48.2,29.09,WSW,247,2.0,3.0,25,29.89,,,29.89,WeatherTracker,2013-08-13 20:00:00,
2013-08-13 16:05:00,86.9,48.2,29.09,West,270,3.0,3.0,26,29.89,,,29.89,WeatherTracker,2013-08-13 20:05:00,
2013-08-13 16:10:00,85.8,48.2,29.09,SSE,157,2.0,3.0,28,29.89,,,29.89,WeatherTracker,2013-08-13 20:10:00,
2013-08-13 16:15:00,85.3,50.0,29.09,West,270,4.0,4.0,29,29.89,,,29.89,WeatherTracker,2013-08-13 20:15:00,
2013-08-13 16:20:00,84.9,50.0,29.09,NW,315,2.0,2.0,30,29.89,,,29.89,WeatherTracker,2013-08-13 20:20:00,
2013-08-13 16:25:00,84.0,51.8,29.09,WNW,292,1.0,0.0,31,29.89,,,29.89,WeatherTracker,2013-08-13 20:25:00,
2013-08-13 16:30:00,79.7,48.2,29.09,NW,315,8.0,9.0,31,29.89,,,29.89,WeatherTracker,2013-08-13 20:30:00,
2013-08-13 16:35:00,75.7,46.4,29.09,West,270,3.0,3.0,35,29.89,,,29.89,WeatherTracker,2013-08-13 20:35:00,
2013-08-13 16:45:00,72.3,50.0,29.12,NW,315,2.0,5.0,46,29.89,,,29.89,WeatherTracker,2013-08-13 20:45:00,
2013-08-13 16:50:00,71.2,55.4,29.12,SSE,157,1.0,1.0,57,29.89,,,29.89,WeatherTracker,2013-08-13 20:50:00,
2013-08-13 16:55:00,70.9,57.2,29.12,SSW,202,0.0,0.0,62,29.89,,,29.89,WeatherTracker,2013-08-13 20:55:00,
2013-08-13 17:00:00,70.9,60.8,29.12,West,270,3.0,3.0,68,29.89,,,29.89,WeatherTracker,2013-08-13 21:00:00,
2013-08-13 17:05:00,71.1,62.6,29.12,WSW,247,2.0,4.0,73,29.89,,,29.89,WeatherTracker,2013-08-13 21:05:00,
2013-08-13 17:10:00,71.2,64.4,29.12,West,270,3.0,3.0,78,29.89,,,29.89,WeatherTracker,2013-08-13 21:10:00,
2013-08-13 17:15:00,71.2,64.4,29.12,SW,225,0.0,0.0,80,29.89,,,29.89,WeatherTracker,2013-08-13 21:15:00,
2013-08-13 17:20:00,71.2,64.4,29.12,South,180,0.0,1.0,81,29.89,,,29.89,WeatherTracker,2013-08-13 21:20:00,
2013-08-13 17:25:00,71.1,64.4,29.12,West,270,2.0,2.0,81,29.89,,,29.89,WeatherTracker,2013-08-13 21:25:00,
2013-08-13 17:30:00,71.1,66.2,29.09,West,270,2.0,2.0,82,29.89,,,29.89,WeatherTracker,2013-08-13 21:30:00,
2013-08-13 17:35:00,71.2,66.2,29.09,West,270,0.0,0.0,84,29.89,,,29.89,WeatherTracker,2013-08-13 21:35:00,
2013-08-13 17:40:00,71.6,68.0,29.09,WSW,247,0.0,0.0,85,29.89,,,29.89,WeatherTracker,2013-08-13 21:40:00,
2013-08-13 17:45:00,72.1,68.0,29.09,West,270,0.0,0.0,87,29.89,,,29.89,WeatherTracker,2013-08-13 21:45:00,
2013-08-13 17:55:00,75.4,71.6,29.09,West,270,0.0,0.0,89,29.89,,,29.89,WeatherTracker,2013-08-13 21:55:00,
2013-08-13 18:00:00,75.9,71.6,29.09,West,270,0.0,2.0,88,29.89,,,29.89,WeatherTracker,2013-08-13 22:00:00,
2013-08-13 18:05:00,75.4,69.8,29.09,West,270,1.0,2.0,82,29.89,,,29.89,WeatherTracker,2013-08-13 22:05:00,
2013-08-13 18:10:00,75.4,68.0,29.09,West,270,0.0,3.0,78,29.89,,,29.89,WeatherTracker,2013-08-13 22:10:00,
2013-08-13 18:15:00,76.3,69.8,29.09,West,270,3.0,3.0,78,29.89,,,29.89,WeatherTracker,2013-08-13 22:15:00,
2013-08-13 18:20:00,77.5,69.8,29.09,SSW,202,1.0,1.0,78,29.89,,,29.89,WeatherTracker,2013-08-13 22:20:00,
2013-08-13 18:30:00,76.8,66.2,29.09,West,270,2.0,2.0,69,29.89,,,29.89,WeatherTracker,2013-08-13 22:30:00,
2013-08-13 18:35:00,76.5,64.4,29.09,West,270,2.0,2.0,66,29.89,,,29.89,WeatherTracker,2013-08-13 22:35:00,
2013-08-13 18:40:00,76.1,64.4,29.09,West,270,1.0,1.0,65,29.89,,,29.89,WeatherTracker,2013-08-13 22:40:00,
2013-08-13 18:45:00,75.7,64.4,29.09,West,270,2.0,2.0,66,29.89,,,29.89,WeatherTracker,2013-08-13 22:45:00,
2013-08-13 18:50:00,75.7,64.4,29.09,West,270,0.0,0.0,67,29.89,,,29.89,WeatherTracker,2013-08-13 22:50:00,
2013-08-13 18:55:00,75.7,64.4,29.09,West,270,0.0,0.0,67,29.89,,,29.89,WeatherTracker,2013-08-13 22:55:00,
2013-08-13 19:00:00,75.9,64.4,29.09,West,270,0.0,0.0,68,29.89,,,29.89,WeatherTracker,2013-08-13 23:00:00,
2013-08-13 19:05:00,75.7,64.4,29.09,West,270,0.0,1.0,67,29.89,,,29.89,WeatherTracker,2013-08-13 23:05:00,
2013-08-13 19:10:00,75.7,64.4,29.09,West,270,0.0,0.0,65,29.89,,,29.89,WeatherTracker,2013-08-13 23:10:00,
2013-08-13 19:15:00,75.6,64.4,29.09,West,270,1.0,0.0,65,29.89,,,29.89,WeatherTracker,2013-08-13 23:15:00,
2013-08-13 19:20:00,75.2,62.6,29.09,West,270,0.0,4.0,64,29.89,,,29.89,WeatherTracker,2013-08-13 23:20:00,
2013-08-13 19:25:00,75.2,62.6,29.09,West,270,1.0,0.0,64,29.89,,,29.89,WeatherTracker,2013-08-13 23:25:00,
2013-08-13 19:30:00,75.2,62.6,29.06,West,270,2.0,2.0,65,29.89,,,29.89,WeatherTracker,2013-08-13 23:30:00,
2013-08-13 19:35:00,75.0,62.6,29.06,West,270,0.0,0.0,65,29.89,,,29.89,WeatherTracker,2013-08-13 23:35:00,
2013-08-13 19:40:00,74.8,62.6,29.06,West,270,0.0,0.0,66,29.89,,,29.89,WeatherTracker,2013-08-13 23:40:00,
2013-08-13 19:45:00,74.5,62.6,29.06,West,270,0.0,0.0,66,29.89,,,29.89,WeatherTracker,2013-08-13 23:45:00,
2013-08-13 19:50:00,74.3,62.6,29.06,West,270,0.0,0.0,67,29.89,,,29.89,WeatherTracker,2013-08-13 23:50:00,
2013-08-13 19:55:00,73.8,62.6,29.06,West,270,0.0,2.0,68,29.89,,,29.89,WeatherTracker,2013-08-13 23:55:00,
2013-08-13 20:00:00,73.6,62.6,29.06,West,270,0.0,0.0,68,29.89,,,29.89,WeatherTracker,2013-08-14 00:00:00,
2013-08-13 20:05:00,73.2,62.6,29.06,West,270,0.0,0.0,70,29.89,,,29.89,WeatherTracker,2013-08-14 00:05:00,
2013-08-13 20:10:00,72.9,64.4,29.06,West,270,0.0,0.0,72,29.89,,,29.89,WeatherTracker,2013-08-14 00:10:00,
2013-08-13 20:15:00,72.7,64.4,29.06,West,270,0.0,0.0,73,29.89,,,29.89,WeatherTracker,2013-08-14 00:15:00,
2013-08-13 20:20:00,72.5,64.4,29.06,West,270,0.0,0.0,74,29.89,,,29.89,WeatherTracker,2013-08-14 00:20:00,
2013-08-13 20:25:00,72.3,64.4,29.06,West,270,0.0,0.0,75,29.89,,,29.89,WeatherTracker,2013-08-14 00:25:00,
2013-08-13 20:30:00,72.3,64.4,29.09,West,270,0.0,0.0,76,29.89,,,29.89,WeatherTracker,2013-08-14 00:30:00,
2013-08-13 20:35:00,72.5,66.2,29.09,West,270,0.0,0.0,77,29.89,,,29.89,WeatherTracker,2013-08-14 00:35:00,
2013-08-13 20:40:00,72.5,66.2,29.09,West,270,0.0,0.0,78,29.89,,,29.89,WeatherTracker,2013-08-14 00:40:00,
2013-08-13 20:45:00,72.3,64.4,29.12,West,270,0.0,0.0,78,29.89,,,29.89,WeatherTracker,2013-08-14 00:45:00,
2013-08-13 20:50:00,72.1,66.2,29.12,West,270,0.0,0.0,79,29.89,,,29.89,WeatherTracker,2013-08-14 00:50:00,
2013-08-13 20:55:00,72.3,66.2,29.12,West,270,0.0,0.0,79,29.89,,,29.89,WeatherTracker,2013-08-14 00:55:00,
2013-08-13 21:00:00,72.3,66.2,29.12,NW,315,0.0,0.0,80,29.89,,,29.89,WeatherTracker,2013-08-14 01:00:00,
2013-08-13 21:05:00,72.3,66.2,29.12,NW,315,0.0,0.0,80,29.89,,,29.89,WeatherTracker,2013-08-14 01:05:00,
2013-08-13 21:10:00,72.3,66.2,29.12,NW,315,0.0,0.0,80,29.89,,,29.89,WeatherTracker,2013-08-14 01:10:00,
2013-08-13 21:15:00,72.5,66.2,29.12,NW,315,0.0,0.0,81,29.89,,,29.89,WeatherTracker,2013-08-14 01:15:00,
2013-08-13 21:20:00,72.3,66.2,29.12,NNW,337,0.0,0.0,81,29.89,,,29.89,WeatherTracker,2013-08-14 01:20:00,
2013-08-13 21:30:00,72.3,66.2,29.12,NE,45,0.0,0.0,80,29.89,,,29.89,WeatherTracker,2013-08-14 01:30:00,
2013-08-13 21:35:00,72.1,66.2,29.12,SE,135,0.0,2.0,79,29.89,,,29.89,WeatherTracker,2013-08-14 01:35:00,
2013-08-13 21:40:00,72.1,64.4,29.12,West,270,0.0,0.0,78,29.89,,,29.89,WeatherTracker,2013-08-14 01:40:00,
2013-08-13 21:45:00,71.8,64.4,29.12,West,270,0.0,0.0,78,29.89,,,29.89,WeatherTracker,2013-08-14 01:45:00,
2013-08-13 21:50:00,71.6,64.4,29.12,West,270,0.0,0.0,77,29.89,,,29.89,WeatherTracker,2013-08-14 01:50:00,
2013-08-13 22:00:00,71.1,64.4,29.12,West,270,0.0,0.0,78,29.89,,,29.89,WeatherTracker,2013-08-14 02:00:00,
2013-08-13 22:05:00,70.7,64.4,29.12,West,270,0.0,0.0,78,29.89,,,29.89,WeatherTracker,2013-08-14 02:05:00,
2013-08-13 22:10:00,70.5,64.4,29.12,West,270,0.0,0.0,79,29.89,,,29.89,WeatherTracker,2013-08-14 02:10:00,
2013-08-13 22:15:00,70.5,64.4,29.12,West,270,0.0,0.0,79,29.89,,,29.89,WeatherTracker,2013-08-14 02:15:00,
2013-08-13 22:20:00,70.3,64.4,29.12,West,270,0.0,0.0,80,29.89,,,29.89,WeatherTracker,2013-08-14 02:20:00,
2013-08-13 22:25:00,70.2,64.4,29.12,West,270,0.0,0.0,81,29.89,,,29.89,WeatherTracker,2013-08-14 02:25:00,
2013-08-13 22:30:00,70.2,64.4,29.12,West,270,0.0,0.0,81,29.89,,,29.89,WeatherTracker,2013-08-14 02:30:00,
2013-08-13 22:35:00,70.2,64.4,29.12,West,270,0.0,0.0,82,29.89,,,29.89,WeatherTracker,2013-08-14 02:35:00,
2013-08-13 22:40:00,70.2,64.4,29.12,West,270,0.0,0.0,83,29.89,,,29.89,WeatherTracker,2013-08-14 02:40:00,
2013-08-13 22:45:00,70.3,64.4,29.12,West,270,0.0,0.0,83,29.89,,,29.89,WeatherTracker,2013-08-14 02:45:00,
2013-08-13 22:50:00,70.3,66.2,29.12,West,270,0.0,0.0,84,29.89,,,29.89,WeatherTracker,2013-08-14 02:50:00,
2013-08-13 22:55:00,70.3,66.2,29.12,West,270,0.0,0.0,84,29.89,,,29.89,WeatherTracker,2013-08-14 02:55:00,
2013-08-13 23:00:00,70.5,66.2,29.12,West,270,0.0,0.0,85,29.89,,,29.89,WeatherTracker,2013-08-14 03:00:00,
2013-08-13 23:10:00,70.7,66.2,29.12,West,270,0.0,0.0,84,29.89,,,29.89,WeatherTracker,2013-08-14 03:10:00,
2013-08-13 23:15:00,70.7,66.2,29.12,West,270,0.0,0.0,84,29.89,,,29.89,WeatherTracker,2013-08-14 03:15:00,
2013-08-13 23:20:00,70.7,66.2,29.12,West,270,0.0,0.0,84,29.89,,,29.89,WeatherTracker,2013-08-14 03:20:00,
2013-08-13 23:25:00,70.7,66.2,29.12,West,270,0.0,0.0,84,29.89,,,29.89,WeatherTracker,2013-08-14 03:25:00,
2013-08-13 23:30:00,70.7,66.2,29.12,West,270,0.0,0.0,84,29.89,,,29.89,WeatherTracker,2013-08-14 03:30:00,
2013-08-13 23:35:00,70.9,66.2,29.12,West,270,0.0,0.0,84,29.89,,,29.89,WeatherTracker,2013-08-14 03:35:00,
2013-08-13 23:45:00,70.9,66.2,29.12,West,270,0.0,0.0,83,29.89,,,29.89,WeatherTracker,2013-08-14 03:45:00,
2013-08-13 23:50:00,71.1,66.2,29.12,West,270,0.0,0.0,83,29.89,,,29.89,WeatherTracker,2013-08-14 03:50:00,
2013-08-13 23:55:00,71.1,66.2,29.12,West,270,0.0,0.0,83,29.89,,,29.89,WeatherTracker,2013-08-14 03:55:00,